Weather in Chichkany

Russia / Chuvash Republic     55°12′25″N   47°26′06″E
temp.,
°C
wind,
m/s
gust,
m/s
humid.,
%
clouds,
%
prec.,
mm/h
press.,
hPa
HPBL,
m
18 april, sun
sun1800:00+5ene512750 0.0 1022278
03:00+4ne49810 0.0 1023182
06:00+4ne49775 0.0 1022215
09:00+9ene57543 0.0 1022647
12:00+12ene56370 0.0 10221334
15:00+13ene67375 0.0 10211728
18:00+12ene594880 0.0 1022487
21:00+7ene7137186 0.0 1024659
19 april, mon
mon1900:00+4ene6125682 0.0 1025464
03:00+2ene61266100 0.0 1026457
06:00+2ene71362100 0.0 1027592
09:00+4e91247100 0.0 1028877
12:00+6e91242100 0.0 10281270
15:00+7e91142100 0.0 10271468
18:00+6e8124075 0.0 1027946
21:00+4e8154185 0.0 1028616
20 april, tue
tue2000:00+2e7154877 0.0 1029490
03:00+1e613575 0.0 1030365
06:00+1e613615 0.0 1030446
09:00+5ese811391 0.0 1030976
12:00+8ese810300 0.0 10301436
15:00+10se810270 0.0 10291633
18:00+8ese8123328 0.0 10261138
21:00+6ese71539100 0.0 1027696
21 april, wed
wed2100:00+4ese81643100 0.0 1025724
03:00+4se91846100 0.0 1024762
06:00+3se101849100 0.1 1023796
09:00+2se101961100 1.0 1022808
12:00+1se102187100 3.3 1021833
15:00+2se101988100 4.6 1021828
18:00+2sse91793100 0.6 1020745
21:00+2sse81695100 2.1 1021660
22 april, thu
thu2200:00+3sse71395100 0.1 1021563
03:00+3s51096100 0.1 1022397
06:00+4s4896100 0.0 1024309
09:00+6s5791100 0.0 1025415
12:00+10s677377 0.2 10251024
15:00+12ssw575795 0.6 10251351
18:00+10sse6107967 0.7 1025584
21:00+8s51089100 1.7 1027542